METEOR 2-17 DEB

Satellite information

Favourite Embed

Satellite Type and Status

DEBRISIN ORBIT

Key statistics

Satellite METEOR 2-17 DEB at a glance.

Uptime

13727

Days in orbit

Revolutions

≈ 14.0

Per day

Orbit

LEO

Low Earth Orbit

Inclination

82.5

Latest

Satellite identification and parameters

Extended collection of information and parameters for METEOR 2-17 DEB.

Object identification

Identified? True

Debris? True

Object name: METEOR 2-17 DEB

International designator: 1988-005T

Object number (NORAD): 31398

Object ID (CCSDS): 31398

Country: COMMONWEALTH OF INDEPENDENT STATES (CIS)

Current information (Y/N): Y

RCS size: SMALL

Orbital parameters

Period: 102.744 minutes

Inclination: 82.5366 deg

SMA: 7266.608 km

Apoapsis: 906.548 km

Periapsis: 870.397 km

RAAN: 164.3375 deg

Eccentricy: 0.0024875

Argument of periapsis: 48.3472 deg

Mean anomaly: 311.9823 deg

Mean motion: 14.01539022 rev/day

Mean motion (dot): 0.00001784 rev/day2

B* drag term: 0.0011674 1/REarth

Two-line elements (TLE)

Creation date: Aug. 16, 2025, 10:56 a.m.

Reference frame: TEME

Reference center: EARTH

Epoch: Aug. 12, 2025, 2:01 p.m. UTC

TLE line 0: 0 METEOR 2-17 DEB

TLE line 1: 1 31398U 88005T 25224.58423879 .00001784 00000-0 11674-2 0 9997

TLE line 2: 2 31398 82.5366 164.3375 0024875 48.3472 311.9823 14.01539022962246

Live tracking on map

Real-time ground track for satellite METEOR 2-17 DEB.

In-orbit conjunctions

A list of the most updated potential collisions computed for object METEOR 2-17 DEB.

Target Orbit TCA Probability of collision Miss distance Type
FENGYUN 1B SSO 2025-04-12 13:07:33 0.0002194218 374.0 (m) PAYLOAD
COSMOS 1275 DEB LEO 2024-11-10 21:29:56 0.0001422475 854.0 (m) DEBRIS

Associated space launch

Second generation soviet meteorological satellite

METEOR 2-17 DEB was lifted into orbit during the mission ‘Tsiklon-3 | Meteor-2 17’, on board a Tsiklon-3 space rocket.

The launch took place on Jan. 30, 1988, 10:59 a.m. from 32/1.

For more information about the launch, click the button.

Launch to space Tsiklon-3 | Meteor-2 17
Tsiklon-3 | Meteor-2 17

Agency: N/A

Status: Launch Successful

Launch date: Jan. 30, 1988, 10:59 a.m. UTC

Rocket: Tsiklon-3

Launch pad: 32/1

Location: Plesetsk Cosmodrome, Russian Federation

...

Latest news about this satellite

There are no fresh news available about this satellite. Check back as we update our databases every day.


Newsletter sign-up

Weekly statistics, charts and insights to help you stay on top of the space industry.